sat.trackr.live / text

‹ back to catalog

STARLINK-30138

NORAD 57605 · 2023-119D

PAYLOAD ACTIVE UNKNOWN

§ Identity

Operator
Country
US
Launch date
2023-08-11
Launch site
AFETR
Launch vehicle
Mass (kg)
RCS (m²)

Purposes: comms

External: N2YO · Heavens-Above · Gunter

§ Orbital elements

Epoch: 2026-09-20T17:30:06.232320Z

Period
94.27 min
Inclination
43.0012°
Eccentricity
0.0001348
Mean motion
15.27576522 rev/d
Perigee alt
482.1 km
Apogee alt
484.0 km
Semi-major
6,861.2 km
B*
3.6457e-5
RAAN
60.2320°
Arg perigee
265.4026°
Mean anomaly
94.6672°
Rev number
17,291

§ Raw data

STARLINK-301381 57605U 23119D   26263.72923880  .00000741  00000+0  36457-4 0  99972 57605  43.0012  60.2320 0001348 265.4026  94.6672 15.27576522172915

JSON: /api/v1/satellites/57605 · /tle

For live sub-satellite position, see the globe view (requires WebGL).

§ Visibility from observer

Set your observer location to see the next 7 days of passes ≥ 10°. The values pass through the URL so the page stays shareable.

No JS? Fill the form by hand. The geolocation button needs JavaScript.